Showing default

INTELSAT 2-F3, 2717

Orbit data source: Space-Track

INTELSAT 2-F3, 2717 is a payload satellite owned by INTELSAT (US) in GEO that was launched on Thu, 23 Mar 1967 UTC via a THOR DELTA E1 launch vehicle from the Air Force Eastern Test Range (AFETR). Payload-class satellites include a variety of spacecraft equipped with specific instruments for various scientific and technological missions. These include communications satellites like Starlink; space stations such as the ISS; scientific satellites like the Hubble; Earth observation satellites from companies like Planet Labs, Umbra, and HawkEye 360; GPS; miniature CubeSats for education and research; and military/defense satellites.

Not visible in the next 10 days
Identifier
2717, 1967-026A
Orbit
GEO
Country
Flag of USUS / ITSO
Related business
Manufacturer
Hughes
Mission
Non-operational spacecraft
Bus & Motor
HS-303, SVM-1
Mass
163 kg wet, ~65 kg dry
Launch date (UTC)
1967-03-23 (59 years ago)
Launch vehicle
THOR DELTA E1
Launch site
Air Force Eastern Test Range (AFETR)
Object type
Payload
Rocket body
Debris
Shape & HBR
Unknown
Radar Cross Section
Large (>1 m²)

Expand to show TLE details & history
Last TLE update: 11 hours ago

TLE from 11 hours ago
0 INTELSAT 2-F3
1  2717U 67026A   26119.63465095  .00000116  00000-0  00000+0 0  9992
2  2717   3.9624  68.2658 0017954 228.4791 166.5552  1.00330197123412
Epoch: 2026-04-29T15:13Z
TLE epoch observation values (Epoch: 2026-04-29T15:13:53.842Z)
Latitude
2.26867°
Longitude
17.21796°
Altitude
35,842.719 km
Speed
3.07 km/s
True Right ascension
06h 53m 08s
True Declination
2° 15' 59"
Sunlit
Object was in daylight at epoch
Visualization orbit readout
Latitude
Unknown
Longitude
Unknown
Altitude
Unknown
Speed
Unknown
Apparent Right ascension
Unknown
Apparent Declination
Unknown
Sunlit
N/A
Visualization observer readout
Local Sidereal Time
09:37:47
Azimuth
Unknown
Elevation
Unknown
Doppler factor
Unknown
Orbital elements
Apogee altitude
35,846.966 km
Perigee altitude
35,695.616 km
Semi-major axis
42,149.428 km
Eccentricity
0.0018
Inclination
3.9624°
RAAN
68.2658°
Arg. of periapsis
228.4791°
True anomaly
166.60293°
Mean anomaly
166.5552°
Eccentric anomaly
166.57908°
Mean motion
0.25082 °/min
Orbital period
1,435.31 mins
BSTAR
0
Loading maneuver chart data...
Computing Atmospheric mass density...
Loading historical data...
Loading historical data...
Loading historical data...
Loading historical data...
Loading historical data...
Loading historical data...
Loading historical data...
Other satellites on launch #26 in the year 1967 (1967-03-23 UTC)

Documentation

Showing up to 5 results
|